Denver, CO

6:14 PM MDT on July 26, 2017 (GMT -0600)
Denver International

Weather History for KDEN - February, 2013

Change the Weather History Date:

Wednesday, February 27, 2013

  Actual Average Record
Temperature  
Mean Temperature 22 °F 35 °F  
Max Temperature 35 °F 49 °F 73 °F (1904)
Min Temperature 8 °F 22 °F -13 °F (1962)
Degree Days  
Heating Degree Days 43 30  
Month to date heating degree days 933 880  
Since 1 July heating degree days 4233 4411  
Cooling Degree Days 0 0  
Month to date cooling degree days 0 0  
Year to date cooling degree days 0 0  
Moisture  
Dew Point 9 °F    
Average Humidity 52    
Maximum Humidity 68    
Minimum Humidity 35    
Precipitation  
Precipitation T in 0.01 in 0.42 in (1957)
Month to date precipitation 0.77 0.35  
Year to date precipitation 1.08 0.76  
Snow  
Snow T in - - ()
Month to date snowfall 14.1  
Since 1 July snowfall 31.1  
Snow Depth 7.00 in    
Sea Level Pressure  
Sea Level Pressure 30.26 in    
Wind  
Wind Speed 10 mph (SSW)    
Max Wind Speed 26 mph    
Max Gust Speed 30 mph    
Visibility 9 miles    
Events      
T = Trace of Precipitation, MM = Missing Value Source: NWS Daily Summary

Daily Weather History Graph

Daily Weather History Graph

Search for Another Location

Airport or City:

Trip Planner

Search our weather history database for the weather conditions in past years. The results will help you decide how hot, cold, wet, or windy it might be!

Date:

Astronomy

Feb. 27, 2013 Rise Set
Actual Time 6:34 AM MST 5:48 PM MST
Civil Twilight 6:07 AM MST 6:16 PM MST
Nautical Twilight 5:35 AM MST 6:47 PM MST
Astronomical Twilight 5:04 AM MST 7:18 PM MST
Moon 8:12 PM MST 7:11 AM MST
Length of Visible Light 12h 08m
Length of Day
11h 14m
Waning Gibbous, 96% of the Moon is Illuminated
Feb 27
Waning Gibbous
Mar 4
Last Quarter
Mar 11
New
Mar 19
First Quarter
Mar 27
Full

Hourly Weather History & Observations

Time (MST) Temp. Windchill Dew Point Humidity Pressure Visibility Wind Dir Wind Speed Gust Speed Precip Events Conditions
12:53 AM 25.0 °F 11.7 °F 15.1 °F 66% 30.17 in 2.5 mi North 17.3 mph - 0.00 in   Overcast
1:53 AM 25.0 °F 11.7 °F 12.9 °F 60% 30.19 in 2.5 mi NNW 17.3 mph - N/A   Overcast
2:53 AM 23.0 °F 10.6 °F 12.0 °F 63% 30.20 in 2.5 mi North 13.8 mph - N/A   Overcast
3:26 AM 21.2 °F 8.9 °F 10.4 °F 63% 30.12 in 10.0 mi North 12.7 mph - N/A   Mostly Cloudy
3:53 AM 19.9 °F 7.3 °F 9.0 °F 62% 30.22 in 10.0 mi North 12.7 mph - N/A   Mostly Cloudy
4:53 AM 19.0 °F 5.0 °F 7.0 °F 59% 30.25 in 10.0 mi North 15.0 mph - N/A   Scattered Clouds
5:53 AM 21.0 °F 13.4 °F 8.1 °F 57% 30.27 in 10.0 mi NW 5.8 mph - N/A   Scattered Clouds
6:53 AM 19.0 °F 11.1 °F 8.1 °F 62% 30.30 in 7.0 mi WSW 5.8 mph - N/A   Scattered Clouds
7:53 AM 17.6 °F 8.2 °F 6.8 °F 63% 30.19 in 10.0 mi SW 6.9 mph - N/A   Scattered Clouds
8:53 AM 23.0 °F 12.4 °F 10.0 °F 58% 30.30 in 10.0 mi WSW 10.4 mph - N/A   Scattered Clouds
9:53 AM 27.0 °F 16.7 °F 12.0 °F 53% 30.29 in 10.0 mi SW 11.5 mph - N/A   Partly Cloudy
10:53 AM 28.9 °F 21.1 °F 10.9 °F 47% 30.28 in 10.0 mi South 8.1 mph - N/A   Partly Cloudy
11:53 AM 33.1 °F - 9.0 °F 37% 30.25 in 10.0 mi Calm Calm - N/A   Scattered Clouds
12:53 PM 30.9 °F 24.3 °F 6.1 °F 35% 30.26 in 10.0 mi East 6.9 mph - N/A   Scattered Clouds
1:53 PM 30.9 °F 23.5 °F 10.0 °F 42% 30.25 in 10.0 mi NE 8.1 mph - N/A   Partly Cloudy
2:53 PM 30.0 °F 22.4 °F 12.0 °F 47% 30.25 in 10.0 mi East 8.1 mph - N/A   Scattered Clouds
3:53 PM 28.0 °F 20.0 °F 12.0 °F 51% 30.27 in 10.0 mi ESE 8.1 mph - N/A   Scattered Clouds
4:53 PM 25.0 °F 17.1 °F 12.0 °F 58% 30.29 in 10.0 mi ESE 6.9 mph - N/A   Partly Cloudy
5:53 PM 18.0 °F 6.1 °F 9.0 °F 68% 30.31 in 10.0 mi SSE 10.4 mph - N/A   Partly Cloudy
6:53 PM 18.0 °F 5.4 °F 7.0 °F 62% 30.34 in 10.0 mi South 11.5 mph - N/A   Partly Cloudy
7:53 PM 12.0 °F -2.7 °F 3.0 °F 67% 30.37 in 10.0 mi South 12.7 mph - N/A   Partly Cloudy
8:53 PM 14.0 °F 2.0 °F 3.2 °F 62% 30.20 in 10.0 mi South 9.2 mph - N/A   Clear
9:53 PM 10.9 °F -0.8 °F 1.9 °F 67% 30.33 in 10.0 mi SSE 8.1 mph - N/A   Clear
10:53 PM 19.9 °F 7.9 °F 5.0 °F 52% 30.28 in 10.0 mi SW 11.5 mph - N/A   Clear
11:53 PM 19.9 °F 7.9 °F 3.9 °F 50% 30.26 in 10.0 mi SW 11.5 mph - N/A   Clear